Theta_e
310 311 312 313 315 316 315 315 316 317 317 314 310 312 303 301 298 305 308 310 306 298 290 292 291 290 293 299 298 298 297 295 296 294 294 293 293 293 292 291 291 292 291 293 291 292 290 292 289 292 292 293 295 298 297 298 297 299 294 295 295 292 289 284 286 291 289 282 286 285 284 291 288 289 291 290 286 288 287 285 286 284 285 282 282 279 284
308 308 309 310 311 314 314 314 314 315 315 315 312 307 303 302 298 297 307 310 305 296 286 286 288 291 295 296 295 300 296 296 293 293 294 293 292 291 292 292 293 291 294 291 289 293 286 292 291 290 293 292 297 295 296 297 295 296 293 292 295 287 286 286 283 283 286 288 286 285 286 287 288 288 288 289 291 290 290 287 286 282 285 285 283 277 284
307 307 307 308 309 310 312 313 313 314 315 317 313 304 305 302 300 299 301 306 303 293 296 292 290 290 291 292 292 293 294 296 296 295 293 295 292 292 291 292 293 290 292 290 291 292 290 286 292 291 291 292 292 295 297 297 296 298 302 296 296 290 287 286 280 278 276 276 278 281 281 282 286 287 287 289 289 288 286 282 284 280 284 286 283 282 289
305 306 306 306 306 307 308 310 312 313 313 313 312 308 304 298 290 296 296 300 298 298 301 295 293 290 290 290 292 294 292 296 297 298 295 296 294 294 293 294 291 290 290 288 288 288 292 288 287 288 288 291 290 290 295 295 297 297 296 295 293 286 288 289 287 286 283 285 287 289 288 286 283 285 286 287 288 289 289 287 284 282 285 284 286 286 288
304 304 306 305 305 305 306 307 310 311 312 311 309 308 306 301 296 290 286 295 295 293 296 294 295 289 294 287 292 291 292 294 293 297 292 296 295 293 293 292 289 289 289 287 287 289 288 289 287 287 289 291 289 288 291 294 295 293 293 293 292 287 285 288 289 288 290 290 290 292 291 286 286 286 285 288 287 286 285 284 282 289 283 280 288 289 286
302 302 304 305 305 305 305 305 307 309 311 312 310 300 305 295 297 298 296 292 285 288 287 292 291 294 294 290 294 291 292 292 290 293 296 297 297 291 292 293 292 291 290 290 286 287 286 286 285 288 287 289 288 290 289 289 292 292 291 290 291 287 285 288 288 287 291 292 291 291 291 290 289 288 288 286 287 286 283 284 288 289 284 282 288 290 287
301 301 302 303 304 304 304 304 305 308 309 311 307 297 304 305 300 300 301 295 294 292 292 293 291 290 291 290 292 290 291 290 294 294 291 294 292 294 288 290 292 292 292 290 286 286 282 283 287 286 287 287 288 286 287 288 287 290 289 290 289 288 285 288 288 287 289 289 290 291 290 289 288 288 288 289 288 287 287 286 288 288 287 289 289 290 289
300 300 300 301 303 303 303 303 303 305 307 308 303 300 297 297 299 293 298 298 296 294 293 292 291 288 291 288 289 292 291 291 294 296 294 289 290 295 291 292 294 293 292 291 287 288 288 288 285 289 288 287 287 286 287 287 287 288 287 290 288 287 283 289 287 285 285 288 289 290 289 287 285 287 288 287 287 288 288 287 288 288 288 289 289 288 287
299 299 299 300 301 302 302 303 303 304 305 301 300 299 303 303 304 302 295 290 293 294 292 291 290 287 289 288 289 292 291 292 295 294 298 294 292 292 290 293 292 293 292 291 291 293 292 291 291 291 290 286 289 287 287 292 286 287 287 289 287 288 285 288 285 282 282 286 287 287 288 287 285 284 285 287 287 286 287 286 289 287 286 287 287 285 286
299 298 298 299 299 300 301 302 303 303 304 299 301 296 303 304 306 306 300 291 294 292 292 291 290 286 289 290 289 291 291 294 295 291 296 298 298 297 294 294 293 291 290 290 292 296 296 295 295 296 295 295 294 294 294 294 290 287 287 289 287 286 285 284 284 280 280 285 286 286 286 284 281 282 285 288 288 289 290 291 291 290 290 287 284 285 291
300 299 300 299 298 299 300 301 302 302 302 296 295 296 299 298 296 297 298 291 293 294 292 291 289 290 293 293 292 294 293 294 295 289 289 297 296 299 298 295 291 290 290 293 299 300 299 299 298 297 296 295 294 294 294 294 294 291 289 287 287 287 285 284 286 279 280 284 285 285 281 275 276 288 291 291 288 288 287 288 289 291 291 289 292 292 294
300 299 300 300 300 299 299 299 300 301 300 300 299 295 298 300 296 295 291 286 286 294 292 289 290 291 293 294 294 293 293 294 294 296 292 295 297 298 297 295 294 288 297 300 300 296 295 295 295 293 293 293 294 294 293 292 292 293 293 289 286 286 285 284 286 281 280 283 283 279 274 276 287 292 293 293 292 291 290 290 291 292 293 293 292 293 293
299 299 299 299 299 300 299 299 300 300 300 301 299 293 297 299 295 291 290 286 283 288 287 289 295 294 294 295 293 293 295 296 297 297 296 295 293 294 297 295 293 295 302 298 299 297 291 288 289 289 290 291 291 291 291 290 290 292 293 293 288 285 285 285 283 284 283 280 280 273 274 285 289 292 292 294 293 292 290 288 290 291 292 292 291 293 294
298 299 299 299 298 298 299 299 299 299 300 299 297 296 298 296 291 290 288 285 284 290 290 289 291 291 292 293 294 295 296 295 295 296 294 296 295 295 297 299 299 301 300 298 295 293 288 288 285 285 284 286 285 284 287 289 290 289 289 291 292 288 287 286 281 285 278 279 279 278 286 283 285 288 289 290 288 289 288 283 287 292 293 293 292 292 293
299 299 298 298 298 298 298 298 298 299 299 299 299 297 296 297 295 291 290 288 281 286 288 282 287 285 286 288 292 292 292 293 292 291 295 297 295 297 299 301 301 300 298 296 289 290 288 287 282 281 282 282 277 280 287 284 289 291 291 291 291 290 285 286 283 280 285 279 277 278 277 275 281 289 293 295 295 294 294 289 286 294 294 295 293 292 293
298 298 298 298 298 298 298 298 298 298 299 299 296 296 297 298 297 295 290 285 283 278 283 287 285 285 285 285 286 284 285 288 290 291 290 291 292 296 299 301 301 300 297 296 291 288 287 284 280 282 279 281 285 284 280 286 284 289 291 290 290 290 290 287 284 281 283 280 277 276 275 278 287 288 293 295 296 295 290 287 282 291 293 294 294 292 293
299 298 298 297 297 298 298 298 298 299 298 298 294 294 293 298 296 293 288 286 285 280 290 287 288 287 285 284 287 287 288 285 287 285 286 288 291 293 293 296 295 298 296 293 289 287 285 284 284 284 284 286 283 282 286 285 280 283 287 288 287 286 286 285 282 280 281 280 278 276 281 280 288 291 292 294 295 296 290 278 278 291 292 294 293 292 293
299 299 298 298 297 297 297 297 298 298 298 299 296 292 291 296 298 294 289 284 280 280 285 288 286 284 283 285 283 285 287 285 285 285 283 285 286 285 283 288 290 293 298 290 288 286 284 284 281 281 281 287 287 287 280 285 283 282 283 283 282 283 284 284 279 281 281 281 279 281 282 288 292 292 295 294 294 291 281 276 285 293 294 295 295 294 294
298 298 297 298 298 298 298 298 298 296 297 298 296 294 293 295 296 295 290 285 284 278 290 290 290 286 288 290 285 286 286 285 283 280 280 283 284 283 284 284 289 287 291 288 288 285 284 283 287 285 283 284 288 282 286 284 283 288 286 283 282 282 283 283 284 281 279 280 279 278 283 289 293 294 294 292 290 280 279 289 295 295 294 295 296 295 295
298 298 298 298 298 297 297 297 297 297 297 297 296 289 292 296 295 294 288 282 283 280 284 285 287 284 288 285 283 283 283 284 285 282 280 277 284 283 281 281 288 285 284 288 284 287 285 282 285 287 283 284 286 289 286 286 290 286 286 288 284 283 283 278 281 283 283 281 279 278 274 287 295 293 291 291 286 286 294 295 295 295 295 295 295 295 294
298 298 298 296 297 297 296 296 297 297 297 298 294 290 288 294 295 296 295 289 283 279 280 288 288 286 288 287 288 287 285 281 282 279 280 281 283 281 272 278 280 280 278 285 281 283 286 284 286 285 287 287 287 288 282 284 286 290 290 288 287 290 284 282 284 286 280 279 277 277 286 290 295 293 287 289 292 295 296 295 294 296 296 295 295 295 295
297 297 297 297 297 297 297 297 296 297 298 297 296 292 287 292 295 296 296 293 285 281 283 288 288 287 288 289 288 287 285 285 285 285 281 278 282 280 280 282 279 281 282 286 280 280 283 283 284 282 283 285 288 285 286 284 281 287 290 289 282 290 288 289 285 288 286 283 286 291 293 294 295 295 295 295 296 297 296 296 296 295 296 296 296 295 296
296 296 296 296 296 297 296 296 296 296 296 297 295 289 287 291 290 293 292 285 287 288 288 288 289 288 290 290 291 290 289 290 288 287 286 281 278 281 279 279 278 284 285 287 280 280 280 281 278 282 280 281 281 282 284 285 283 287 285 291 290 294 295 294 291 289 293 294 294 296 295 295 294 297 297 296 296 297 296 295 295 296 297 297 296 296 296
296 296 296 296 296 297 297 296 295 296 296 296 294 292 289 291 292 291 287 288 284 280 283 284 282 279 281 282 287 290 290 289 289 289 290 287 278 278 283 283 285 284 282 285 288 282 282 283 281 283 277 280 283 279 277 278 281 286 285 285 288 289 291 291 289 291 288 284 294 293 294 295 295 296 297 297 296 296 296 295 295 296 297 296 296 296 296
296 295 295 296 296 297 297 296 296 296 296 297 296 294 293 291 292 291 285 280 280 278 274 277 280 284 287 289 291 288 288 290 291 291 290 289 286 281 279 285 289 285 283 286 288 285 284 279 280 280 276 283 285 278 285 281 280 289 282 285 287 286 294 289 288 288 285 286 292 294 296 297 297 297 295 294 295 296 296 296 296 296 297 296 297 296 294
296 295 295 297 297 296 296 296 295 296 296 295 295 291 288 288 292 291 288 288 286 282 275 274 278 286 288 286 284 287 290 290 288 288 288 289 290 288 286 288 287 289 288 288 286 281 279 278 278 278 276 277 288 280 280 284 283 287 284 283 290 289 289 283 286 285 288 290 292 293 294 294 295 296 297 296 296 296 296 296 296 295 295 295 295 295 295
297 297 296 295 295 296 296 296 296 296 296 295 294 291 290 290 289 287 286 285 281 276 278 274 280 280 281 282 286 288 289 288 288 288 288 289 288 289 288 286 284 284 283 281 283 282 280 278 278 275 279 278 284 282 283 282 282 281 281 285 290 287 284 288 287 283 284 284 287 292 286 286 292 295 297 296 298 297 295 296 294 295 294 294 294 294 295
297 296 296 295 295 295 295 296 295 296 296 296 294 293 292 290 291 291 291 289 283 277 277 277 277 277 284 279 286 287 288 288 288 286 286 286 286 285 284 283 282 281 281 280 276 277 277 275 274 280 281 281 280 278 284 284 284 282 281 282 286 284 285 288 285 284 284 290 293 293 292 292 293 294 296 296 296 295 293 294 294 295 295 295 295 293 293
295 295 296 295 296 296 296 296 295 295 296 294 292 287 286 290 292 292 292 292 289 283 280 280 282 281 275 279 287 283 286 287 286 285 285 285 285 284 283 283 282 282 282 281 279 278 277 277 280 278 276 282 279 275 278 274 275 276 281 288 290 290 292 291 290 291 292 294 294 292 290 289 292 294 295 295 296 296 295 295 295 295 294 293 293 292 292
295 296 295 294 295 295 294 295 295 295 296 289 287 284 281 284 290 290 292 291 289 284 278 275 273 277 285 281 279 284 285 285 285 284 284 283 283 283 283 282 282 283 282 280 279 275 278 278 279 281 282 285 278 277 276 274 274 277 283 285 286 288 289 291 293 291 290 293 292 292 293 293 295 295 295 295 295 295 295 295 295 296 295 296 294 294 293
295 296 295 294 295 295 294 294 296 296 295 285 283 279 277 275 283 291 292 292 291 286 280 279 275 281 278 279 282 282 284 284 284 283 283 283 283 283 284 283 282 282 278 279 279 278 280 276 277 278 282 282 281 277 275 275 273 275 281 284 284 286 287 288 290 290 290 289 289 289 289 289 290 291 291 292 293 294 294 294 295 293 295 294 294 294 294
294 295 295 294 294 295 294 294 294 295 291 285 283 281 282 283 288 288 292 292 290 284 278 274 274 274 273 277 278 282 284 284 283 283 283 283 280 283 282 282 279 283 281 278 280 279 277 279 278 278 278 281 282 276 277 275 273 275 281 282 284 285 285 285 285 286 287 287 286 284 284 285 286 285 285 288 289 290 290 290 291 292 291 292 293 293 292
294 294 294 294 294 294 294 294 293 293 289 289 292 294 293 293 293 293 293 289 286 281 283 277 271 274 273 273 274 275 281 281 280 281 278 284 279 283 280 282 281 281 284 280 276 275 279 279 279 277 280 284 278 277 276 274 276 280 281 282 283 283 284 285 285 285 286 287 286 282 281 283 285 288 289 289 290 290 290 290 291 291 291 290 289 290 290
293 293 294 293 293 293 294 293 294 293 291 287 283 285 289 292 293 292 288 286 282 283 281 275 272 272 272 276 272 277 283 279 277 280 274 282 283 282 278 281 282 277 280 278 279 279 279 279 277 277 281 278 280 277 272 276 280 281 282 282 283 284 283 283 284 281 275 273 275 277 278 280 283 285 286 287 288 289 290 290 290 288 288 289 289 290 291
293 293 293 293 293 292 291 291 289 287 282 284 285 286 290 293 293 293 289 284 279 277 276 276 275 269 268 268 269 274 279 278 275 278 275 277 284 277 279 274 278 274 274 283 277 277 275 275 279 275 272 278 276 272 274 277 278 280 281 280 274 269 272 272 272 270 269 270 270 273 276 278 280 281 282 283 283 285 286 286 287 287 287 287 288 289 290
293 292 292 292 291 291 289 288 286 284 282 282 283 290 293 294 294 291 289 288 284 278 275 274 275 270 271 267 267 272 281 276 278 278 277 278 275 278 278 275 271 275 279 276 271 275 273 278 276 270 276 272 270 275 276 279 276 273 269 265 265 266 265 266 266 265 265 268 269 272 276 276 273 273 275 276 278 280 282 283 285 287 287 287 288 289 289
293 292 292 291 289 286 282 282 288 285 283 287 289 293 292 291 287 285 283 282 282 284 276 273 271 271 273 272 276 275 278 271 279 272 271 272 271 274 274 271 270 275 274 272 273 271 275 281 274 271 271 270 272 278 274 267 265 265 263 263 262 263 264 263 264 263 263 265 268 271 270 267 267 269 270 271 272 274 275 275 278 280 282 283 285 286 286
292 291 286 283 281 277 276 278 281 285 292 291 292 284 279 282 277 277 279 278 281 282 277 277 272 275 278 274 270 279 277 273 279 270 268 272 273 269 272 272 272 274 267 270 272 278 275 274 272 270 271 276 278 267 262 266 263 262 263 262 261 261 262 262 261 261 260 262 265 265 263 262 263 265 266 266 268 269 271 273 275 277 278 280 283 285 286
288 284 282 281 278 274 275 275 286 291 289 287 284 278 274 273 274 272 272 276 276 274 278 276 273 276 274 273 274 281 278 274 270 268 267 276 272 265 273 267 273 274 268 269 272 280 270 271 272 272 271 275 275 261 262 260 262 261 261 262 261 261 261 261 261 259 259 260 261 261 261 260 260 261 263 264 265 267 268 270 272 274 276 278 280 283 285
283 280 280 280 278 279 286 287 292 289 286 278 272 272 269 272 272 267 272 267 268 271 276 271 277 276 277 273 272 272 282 275 270 269 271 272 277 268 272 269 270 270 263 266 270 278 270 266 270 270 269 274 267 261 261 260 260 260 261 260 261 260 261 260 260 261 260 260 261 260 260 261 261 260 260 261 262 262 264 266 268 270 273 275 278 280 282
281 279 278 276 279 283 285 284 281 277 276 274 273 272 267 265 268 267 269 262 263 264 271 273 276 274 277 278 277 273 280 279 274 275 274 270 278 276 268 267 275 265 263 264 272 271 268 266 267 268 270 263 258 260 259 260 259 260 260 260 260 260 259 260 260 260 259 258 259 259 259 259 259 259 259 260 260 261 262 263 265 267 269 272 274 277 280
283 282 281 284 284 283 282 280 277 274 274 276 270 267 269 266 266 263 266 264 264 262 268 272 266 271 271 277 275 277 274 276 271 276 270 267 275 270 267 268 268 266 264 271 269 266 267 265 267 268 265 257 260 258 259 257 259 258 259 259 259 259 259 259 259 259 259 258 258 258 258 258 258 258 258 259 259 260 261 262 263 265 267 270 274 277 280
290 286 284 281 281 279 279 274 277 275 269 268 268 264 266 262 265 266 264 268 267 268 269 273 273 280 277 276 272 274 274 280 275 271 271 268 276 274 266 267 265 262 267 268 266 267 266 266 265 268 258 256 257 257 258 258 259 259 259 259 259 259 259 258 258 257 258 258 257 257 257 257 257 258 259 259 259 259 261 263 264 266 270 273 276 278 278
285 283 280 279 276 276 276 265 275 269 268 268 265 262 263 261 263 261 260 264 265 267 272 271 272 274 270 273 272 274 272 275 281 268 268 270 268 265 266 262 265 269 268 266 266 264 266 269 267 261 258 257 257 258 258 258 258 258 258 258 258 259 258 258 258 257 257 258 258 257 257 257 257 258 259 259 260 260 262 265 269 270 270 271 273 274 271
279 277 276 274 270 274 270 265 272 266 263 266 270 261 261 262 266 266 268 268 269 269 272 273 274 271 269 271 269 270 276 269 273 266 266 270 265 266 264 263 266 264 263 264 264 266 264 267 258 254 257 255 258 257 257 257 257 257 257 256 257 257 257 256 256 256 256 256 257 257 256 257 257 257 258 260 262 265 265 264 264 265 266 268 269 267 267
275 273 272 269 267 270 266 263 266 262 264 268 267 267 267 268 265 264 267 266 266 268 268 268 267 268 270 269 270 269 268 269 267 267 268 268 265 263 268 267 266 263 263 263 262 262 265 265 254 256 256 256 256 256 256 256 257 257 256 254 255 255 255 256 255 256 256 256 257 257 256 257 257 257 258 260 261 262 262 262 262 263 265 266 266 265 265
275 275 270 269 266 268 268 263 264 265 265 264 266 268 270 268 265 266 263 264 265 266 265 264 266 270 268 269 268 267 267 267 265 268 268 264 264 267 272 265 262 263 260 260 261 263 264 256 255 256 255 255 255 255 255 255 255 255 255 255 255 255 255 255 256 255 256 257 256 256 256 256 256 257 258 259 260 260 261 261 261 262 263 264 264 264 264
270 274 270 265 264 266 264 266 263 262 261 262 262 262 264 265 264 261 261 261 263 266 264 265 266 268 268 271 270 268 266 267 266 267 269 264 268 263 263 264 263 264 263 260 264 259 254 255 254 254 254 254 254 253 254 254 254 254 254 254 254 254 255 255 255 256 256 256 256 255 256 256 255 256 257 258 259 259 259 259 260 262 262 263 263 263 262
272 270 268 267 268 267 266 264 264 269 263 258 260 262 262 264 261 259 261 262 262 261 264 265 267 269 266 270 267 268 266 269 264 265 269 266 263 261 262 260 260 260 263 256 254 252 253 253 254 254 253 253 253 253 253 254 254 253 254 254 254 255 255 255 256 256 256 256 256 255 254 255 255 256 257 258 257 258 259 259 259 260 261 261 261 260 259
275 270 269 265 264 264 262 263 265 266 260 258 258 259 261 262 260 260 261 260 261 261 266 270 271 269 268 269 264 267 266 269 266 268 265 263 264 264 264 260 262 262 258 251 251 252 253 253 253 251 252 252 252 252 252 253 254 254 254 255 255 255 255 256 256 256 256 256 255 255 255 255 255 256 256 256 258 258 258 258 258 258 259 260 260 259 258
275 273 269 267 266 266 266 266 267 266 263 259 257 258 259 259 259 258 261 259 259 262 264 265 268 267 266 266 265 261 263 266 263 263 263 262 263 262 262 262 260 248 247 250 251 252 252 252 252 251 251 251 251 252 253 253 253 253 254 254 254 255 256 256 256 256 256 256 256 257 255 254 255 256 257 258 257 257 257 257 257 257 258 258 259 258 257
270 269 266 262 262 261 263 261 258 256 255 256 255 256 258 256 258 257 260 260 260 262 263 266 264 264 263 261 263 263 265 263 263 261 261 261 254 257 259 254 248 248 250 249 250 251 252 252 252 251 251 251 252 252 252 253 253 253 254 254 254 255 255 256 256 256 255 255 255 255 255 255 256 256 257 256 256 256 254 255 256 256 257 257 257 257 257
Wind_Speed
18 19 20 17 15 12 12 13 13 12 12 4 3 4 2 2 4 3 18 18 21 14 10 10 11 13 14 6 7 8 6 3 3 10 6 6 5 4 6 9 8 9 9 5 7 10 9 9 10 3 6 12 15 5 11 8 6 3 1 1 1 5 2 5 11 9 3 4 5 2 2 3 3 10 5 8 14 15 13 11 3 6 5 8 7 9 15
16 18 19 20 21 16 13 11 10 12 10 6 3 6 4 4 5 2 10 19 18 17 11 10 16 13 9 11 14 5 4 6 6 7 7 9 6 12 9 7 13 10 6 7 12 8 10 9 11 3 8 7 7 7 9 15 9 10 8 9 8 3 4 7 6 5 7 9 3 3 1 3 9 9 12 13 8 12 6 4 1 6 15 21 6 12 14
15 16 18 19 20 22 19 14 13 9 11 10 5 4 2 3 2 3 6 11 12 16 12 14 12 17 17 15 19 12 8 9 16 11 8 5 8 5 8 11 3 8 8 12 11 11 17 8 6 11 8 10 2 2 10 15 12 12 5 10 9 8 5 10 10 15 13 12 16 12 8 13 5 6 5 12 17 14 6 10 9 11 17 16 10 17 21
14 14 15 17 19 20 22 20 15 12 10 10 7 4 3 6 5 5 4 8 9 8 5 1 7 10 12 12 14 11 12 6 5 8 11 13 8 8 3 4 4 10 8 10 12 15 10 14 6 4 4 4 1 2 7 13 12 11 9 4 10 4 6 13 16 17 17 20 19 4 8 7 9 9 8 13 15 18 16 10 13 18 9 12 17 22 18
15 15 14 15 17 18 20 22 20 16 13 9 6 6 7 1 11 7 6 2 10 9 8 7 5 5 9 9 4 17 18 10 4 11 8 10 15 4 4 6 8 5 7 9 13 12 12 8 10 10 11 1 1 1 3 6 9 3 1 3 3 1 8 15 21 23 20 22 21 23 7 8 9 10 11 13 15 17 17 16 23 10 6 16 14 25 20
18 17 16 14 15 17 18 20 22 19 15 12 5 8 3 9 3 10 12 13 11 14 18 16 16 11 5 6 5 11 11 12 13 4 13 3 6 8 4 14 15 16 18 15 12 9 11 5 10 10 9 8 2 5 1 4 5 5 2 1 4 4 11 11 15 20 20 18 26 25 24 19 12 12 12 14 16 19 23 27 22 14 12 19 23 20 17
16 17 17 15 14 15 16 17 19 20 18 12 7 10 4 10 2 4 8 14 10 23 22 23 23 20 20 9 12 15 15 19 17 11 1 7 5 16 11 14 21 24 22 15 11 6 6 14 15 10 12 13 9 8 3 5 3 1 1 0 1 1 10 9 12 17 16 20 22 24 23 19 19 17 16 16 18 23 22 22 17 20 26 24 22 21 23
17 16 17 17 16 14 14 15 16 18 20 12 10 10 8 7 6 3 7 12 9 13 13 13 16 17 18 14 15 14 19 22 16 12 12 9 9 11 19 19 19 19 18 18 15 15 20 19 16 11 15 12 6 7 8 1 1 2 1 1 2 4 11 10 13 14 16 20 23 24 23 21 21 19 16 17 24 23 17 19 25 25 18 23 22 21 22
17 17 17 17 17 14 13 13 14 15 15 7 6 7 8 6 9 6 5 7 8 7 13 14 15 13 13 17 13 16 19 19 17 20 17 23 15 12 24 22 21 16 16 16 19 20 24 25 27 22 15 15 8 7 1 4 5 3 5 4 2 7 13 11 11 13 14 17 23 26 23 21 16 11 17 26 27 21 21 24 21 17 20 22 17 17 18
16 16 16 17 17 16 13 11 12 12 13 8 4 10 4 8 7 9 10 12 8 12 5 12 7 14 15 18 23 17 23 23 19 17 13 18 19 19 17 19 16 12 13 19 22 24 23 24 25 23 23 19 14 14 13 10 10 5 10 8 9 5 7 9 9 14 15 21 18 17 14 11 11 15 26 30 25 22 25 26 22 22 22 18 15 20 17
18 16 16 16 16 16 15 13 10 12 5 6 6 6 6 7 6 6 6 11 4 12 12 14 17 11 11 19 16 20 20 18 18 19 7 12 21 19 18 15 14 13 19 23 25 22 19 17 16 12 11 11 12 11 14 17 15 14 12 6 7 8 9 10 6 11 11 16 16 12 11 15 18 23 26 20 25 31 31 25 29 27 15 17 15 17 19
18 17 16 16 16 16 15 14 13 11 7 4 5 7 7 5 7 5 7 10 8 6 10 10 14 10 19 18 20 19 20 21 22 19 25 17 12 13 20 19 15 17 12 11 2 2 3 2 2 3 6 11 15 16 18 19 18 15 15 14 9 11 11 13 9 10 12 13 7 9 17 17 21 15 10 23 30 30 30 32 25 19 18 19 22 25 27
18 17 16 15 15 16 16 16 13 12 10 4 3 7 7 9 7 6 7 9 9 5 7 7 9 14 16 17 17 19 20 22 22 22 20 17 16 12 11 15 18 19 12 2 6 5 6 9 11 13 16 14 16 17 19 18 22 23 18 18 14 14 15 11 9 10 8 6 8 11 17 5 1 8 16 20 19 21 24 25 24 19 17 21 24 27 25
18 18 17 17 16 15 15 16 16 16 13 8 5 4 5 6 7 7 4 5 7 3 7 11 10 13 14 16 17 17 15 18 18 17 20 15 20 21 17 14 15 13 9 6 6 6 9 3 10 6 10 9 10 11 18 24 27 24 26 23 21 21 15 11 12 11 13 11 15 22 3 4 6 7 13 16 18 22 23 20 15 15 14 21 25 24 23
18 19 19 18 17 16 16 15 15 16 17 15 5 4 4 4 4 6 4 5 8 6 3 8 3 8 10 10 12 14 14 14 12 16 16 15 16 15 18 18 13 8 9 11 5 7 12 6 9 7 6 9 11 11 7 9 10 28 29 26 24 20 20 14 17 11 14 16 13 10 10 16 14 18 20 18 18 18 13 12 12 8 19 27 23 25 26
20 21 20 19 18 18 17 16 16 15 14 16 9 6 4 3 4 4 5 4 6 9 6 3 5 6 8 8 7 10 10 9 11 11 11 11 14 17 16 15 13 10 6 8 6 7 8 12 12 11 11 11 8 5 5 6 4 8 24 25 23 23 22 19 18 13 11 14 12 14 14 16 10 23 23 25 22 12 6 4 11 8 26 28 26 26 23
21 21 21 20 18 18 18 17 17 15 14 13 8 8 6 3 2 3 4 4 7 10 9 10 4 3 5 7 6 5 4 6 7 9 8 7 8 10 9 11 6 12 17 13 10 9 11 15 11 14 12 8 12 13 4 5 4 4 14 22 29 24 15 13 16 14 13 14 14 15 7 12 12 15 18 25 20 5 4 14 14 19 35 28 27 25 25
21 21 21 20 20 18 18 18 18 16 15 13 8 6 8 7 4 3 4 5 7 8 9 15 14 7 4 1 4 4 3 5 4 6 6 7 5 5 10 7 7 9 17 18 10 14 16 14 14 12 16 13 4 2 20 7 9 9 10 12 11 15 12 16 20 16 22 23 16 14 10 3 8 17 21 9 13 12 14 22 13 23 25 21 22 23 23
20 21 21 21 20 20 19 18 18 18 17 14 7 6 6 7 7 6 6 6 6 9 1 5 1 5 4 2 5 5 3 4 7 9 10 10 3 5 8 9 5 6 6 14 11 13 11 10 7 9 9 10 11 15 5 14 16 7 14 7 6 12 11 13 17 17 15 17 16 19 16 13 13 15 16 11 11 12 23 19 23 21 18 16 15 17 18
21 20 21 20 22 22 21 19 19 17 16 17 9 7 6 1 1 5 6 9 7 10 9 12 5 9 5 8 8 9 9 7 4 8 3 6 8 19 12 7 3 6 7 7 14 7 9 13 13 6 12 8 13 7 12 20 12 17 12 17 14 11 11 11 15 12 14 11 14 11 14 7 23 24 12 13 17 21 16 20 18 19 18 17 17 16 16
20 20 20 22 22 22 21 20 19 17 16 15 13 3 4 5 7 6 6 7 6 10 10 6 6 7 4 6 6 7 6 10 7 6 4 6 5 4 3 5 5 6 5 5 6 6 4 7 12 12 7 11 10 9 20 13 17 21 17 16 15 15 13 7 11 12 14 17 15 13 17 17 23 23 19 18 28 22 24 21 20 15 15 14 15 15 15
22 21 21 21 21 21 22 22 19 18 16 16 13 3 6 6 5 4 2 4 7 10 7 3 1 6 7 8 8 8 10 12 13 10 7 8 5 9 5 8 12 1 3 4 5 5 6 5 6 8 8 7 2 14 12 15 17 6 18 20 16 15 19 16 16 15 13 12 14 16 13 14 13 23 23 20 26 25 25 23 20 17 15 14 14 15 15
22 22 21 22 22 22 22 21 21 18 16 16 10 4 8 3 2 3 4 4 4 7 5 8 7 8 8 11 12 11 11 12 13 12 10 9 8 7 10 10 11 5 4 4 8 9 12 10 11 8 12 7 8 9 7 11 11 6 12 11 20 17 23 23 18 20 16 21 16 10 12 18 19 20 23 27 27 22 19 20 19 17 16 13 13 13 15
22 22 22 22 21 21 21 21 22 20 19 17 13 6 6 5 5 2 1 3 5 7 7 5 6 5 8 12 9 7 10 12 13 13 10 10 12 10 7 8 6 4 5 8 7 7 6 7 6 5 13 9 13 13 11 11 9 4 7 7 2 6 12 13 14 15 16 16 8 21 20 20 19 18 21 23 19 17 14 17 18 19 19 17 14 16 15
24 23 22 22 21 20 20 21 21 19 18 18 12 9 6 4 5 6 6 6 3 4 6 4 6 12 8 4 3 3 9 9 6 8 9 11 13 11 13 9 6 6 12 8 5 7 4 11 9 6 12 4 3 13 6 12 10 2 13 7 5 11 3 12 13 16 14 18 13 14 15 19 17 16 15 15 17 20 18 17 18 20 20 20 21 18 16
22 22 23 23 20 20 21 21 21 20 20 20 15 4 5 7 5 4 3 4 3 2 4 6 10 3 4 5 9 13 5 3 7 9 12 14 15 15 14 10 11 9 11 9 6 8 7 9 6 10 12 8 3 12 11 9 12 6 15 12 10 7 4 6 3 6 11 13 16 17 19 22 21 15 5 9 14 15 18 19 18 16 17 19 18 16 18
23 21 22 21 23 21 20 22 21 20 20 21 10 6 7 6 5 8 7 6 5 4 6 8 7 0 1 8 10 3 4 7 8 9 9 9 9 9 10 13 13 9 8 7 7 8 7 8 7 11 9 11 8 15 11 13 15 13 13 11 4 9 14 11 13 15 15 15 15 7 9 12 15 17 18 13 11 13 12 12 12 14 18 18 19 19 17
22 22 24 22 23 22 21 21 21 20 21 18 10 7 7 6 7 9 9 9 8 8 6 5 4 4 1 4 11 8 9 7 7 9 9 10 10 11 11 13 11 9 7 6 6 6 7 10 10 7 9 7 10 15 11 15 13 16 16 16 14 18 18 13 13 14 16 11 15 8 11 12 11 15 17 13 11 10 12 13 12 13 15 17 16 17 17
23 22 23 22 21 20 20 21 21 20 19 15 4 4 2 7 7 9 10 9 8 6 5 7 6 6 7 5 4 2 6 6 7 8 8 8 8 7 8 9 8 8 8 8 8 8 9 9 8 9 7 6 9 9 7 13 12 17 12 10 13 12 15 19 20 22 23 18 14 8 9 13 17 14 11 9 8 12 14 14 15 16 14 9 8 10 13
24 21 21 23 22 22 22 21 20 20 18 4 3 1 2 4 8 10 11 10 10 4 4 5 8 6 1 0 4 9 7 7 9 9 10 8 8 8 8 8 9 10 9 7 5 8 7 10 9 11 12 9 12 7 13 12 13 13 10 14 16 17 19 17 17 18 16 13 15 14 16 18 14 15 15 13 12 13 14 16 18 18 16 16 16 15 14
24 21 20 22 22 19 20 21 19 18 15 3 4 4 3 5 2 4 11 10 9 6 2 4 6 5 4 3 5 11 15 10 8 9 12 11 11 9 8 6 8 7 8 8 8 11 8 8 7 12 11 13 11 11 13 14 15 11 11 13 14 17 16 15 15 16 17 15 14 15 14 17 16 18 19 17 18 17 18 15 16 16 18 18 19 18 19
22 21 20 20 20 19 19 21 21 15 4 7 9 6 3 2 2 2 6 8 8 5 2 2 4 2 3 2 3 3 4 7 4 3 3 4 6 7 8 8 8 8 8 7 9 8 9 11 13 12 12 13 13 12 12 15 18 15 14 17 16 17 17 18 18 21 21 19 19 22 23 24 22 21 21 21 23 22 23 23 23 23 23 21 21 19 18
20 20 19 19 18 18 19 21 20 12 6 7 9 11 11 9 3 4 7 8 4 3 4 4 3 3 1 6 2 3 4 1 1 3 5 5 5 4 5 5 7 7 9 10 5 7 6 10 9 12 12 10 12 10 13 17 17 16 17 18 19 19 19 20 20 21 20 18 14 16 16 16 18 18 18 17 17 17 18 19 19 17 17 17 19 19 17
18 18 18 17 16 16 17 18 16 7 3 3 4 7 7 11 10 9 4 3 2 1 1 3 3 7 6 2 2 5 6 5 5 5 4 3 3 5 5 4 6 6 5 11 8 10 7 9 12 13 10 11 10 13 14 15 16 19 16 18 17 18 17 15 13 11 13 14 14 13 14 14 16 16 17 18 18 17 17 16 15 17 17 17 19 20 20
14 12 13 14 12 7 5 8 3 3 4 4 4 1 6 16 17 16 13 5 3 3 3 3 2 1 1 1 3 4 2 4 8 6 5 4 5 5 4 6 3 8 6 8 7 9 12 10 10 12 13 10 12 12 11 14 16 17 17 12 13 15 14 13 12 14 16 15 15 16 16 17 17 15 14 17 18 19 20 19 17 18 19 19 22 22 20
13 12 10 6 3 5 3 5 3 3 4 5 4 6 14 16 16 11 12 9 7 4 4 4 5 5 5 6 4 3 2 4 4 3 5 2 2 2 4 4 8 9 6 6 9 9 11 9 9 14 9 11 11 10 12 11 10 9 12 11 10 10 7 8 13 18 18 18 16 15 13 13 13 15 14 15 16 18 18 19 19 18 18 19 19 20 19
9 8 9 8 3 4 2 3 3 5 5 4 6 4 4 3 3 3 1 0 3 1 4 1 2 5 8 5 1 5 2 6 3 1 2 2 4 1 1 1 8 6 5 6 8 11 13 11 8 12 11 13 14 12 9 12 11 9 9 9 8 7 9 9 11 13 17 17 16 9 8 14 17 14 14 15 16 17 19 21 20 19 20 22 21 20 20
9 12 7 3 3 2 1 3 4 5 7 8 7 3 2 2 2 0 1 3 4 4 3 3 7 5 3 5 8 4 1 5 1 2 2 2 2 3 3 4 4 4 8 8 9 9 6 4 8 10 13 14 14 9 10 9 7 5 6 7 9 9 10 11 12 13 15 19 21 19 20 20 20 18 14 19 19 20 18 17 18 20 21 21 22 21 20
13 3 3 2 3 2 4 4 2 5 7 4 3 1 1 0 1 0 2 2 1 4 3 6 8 8 6 6 8 3 6 3 2 1 2 4 2 5 0 3 5 4 5 7 10 5 5 8 8 9 11 13 7 6 7 6 4 5 4 7 8 9 9 10 9 8 8 8 13 15 12 14 19 24 23 20 19 19 20 20 20 20 20 21 22 22 21
2 4 3 3 4 3 3 4 6 6 1 2 1 1 1 0 3 3 1 1 1 2 2 5 6 8 11 12 9 8 4 4 6 6 5 2 2 3 2 1 3 1 4 6 7 2 5 8 8 8 10 7 3 6 8 7 6 6 9 8 8 10 9 11 12 9 11 15 15 18 17 16 17 19 22 23 21 22 24 22 21 21 21 22 23 23 22
1 3 3 3 3 2 2 2 2 2 1 1 0 0 1 1 1 1 1 1 2 4 2 3 3 3 4 8 7 9 3 2 1 1 1 3 2 3 1 5 1 1 4 5 4 1 2 3 6 11 10 4 2 8 9 9 7 8 9 10 11 9 13 13 11 12 12 13 14 14 14 16 18 19 19 22 22 23 24 24 24 24 24 23 24 23 21
5 5 3 3 3 3 2 1 1 1 0 1 2 3 3 2 1 2 1 3 5 2 3 3 1 5 5 8 7 3 3 1 1 1 1 2 2 4 3 2 0 3 5 5 1 1 0 7 7 10 2 2 5 5 8 11 10 13 11 13 11 12 13 12 14 11 10 14 15 16 16 17 19 18 17 19 21 22 23 24 25 27 26 24 22 21 21
10 9 5 3 1 0 1 2 2 1 3 3 2 2 1 2 3 5 2 2 2 1 3 1 1 0 1 2 1 1 2 0 1 1 1 4 2 0 2 2 1 4 5 1 0 4 8 8 8 6 5 6 7 9 9 9 14 12 14 12 13 15 16 17 17 18 14 14 16 16 19 21 21 18 18 20 24 29 28 25 25 25 23 21 20 20 18
5 3 2 1 2 3 3 4 2 3 1 1 4 5 4 1 2 1 0 3 1 2 1 1 2 2 4 0 2 1 1 2 3 1 1 1 1 1 0 3 4 5 2 2 3 9 10 9 3 4 5 6 5 8 11 13 14 15 13 12 16 15 17 17 17 17 17 13 12 15 17 18 20 19 17 18 20 24 24 21 16 16 20 20 20 17 8
3 2 1 1 1 1 3 2 1 2 4 5 4 3 4 8 8 7 7 0 2 1 1 2 3 3 3 1 1 1 1 2 1 3 3 1 1 2 1 3 2 1 1 8 5 8 4 7 4 4 10 14 13 12 13 13 13 15 17 19 16 17 18 20 21 19 17 17 17 17 16 16 17 19 18 17 17 17 17 19 18 16 16 15 13 7 5
3 4 3 3 3 2 2 2 1 1 3 2 5 6 7 5 2 1 1 2 1 2 2 1 1 1 1 2 3 3 1 1 0 2 2 1 3 6 4 1 1 3 5 5 7 12 13 4 3 7 11 12 13 15 13 13 14 13 16 18 17 17 16 17 17 18 18 19 18 17 18 18 17 20 22 20 19 19 17 15 15 14 14 11 7 5 4
0 0 1 1 1 1 2 2 4 5 4 3 3 4 4 3 3 4 2 3 2 2 3 2 2 3 2 2 0 2 1 0 2 3 1 2 3 2 1 1 5 3 5 8 9 10 3 2 5 9 11 14 14 14 14 14 13 14 16 15 16 18 18 18 18 18 19 19 19 18 18 18 19 19 20 20 18 16 17 15 15 14 12 8 6 4 4
1 1 2 1 4 2 4 5 1 2 3 3 1 2 2 3 5 3 4 2 3 1 1 1 1 1 1 1 1 5 2 2 2 3 3 1 1 0 2 3 6 5 3 4 9 1 2 7 10 12 12 12 15 17 15 16 16 17 17 16 18 19 19 20 19 19 19 20 19 18 18 20 19 19 19 18 18 15 13 14 14 13 9 8 5 6 6
1 1 2 2 1 1 1 1 1 5 1 3 5 5 5 4 4 2 5 3 3 3 2 1 2 1 3 1 2 3 4 2 2 3 2 2 3 5 4 6 5 9 4 1 2 2 6 10 10 11 12 14 13 14 15 14 16 17 17 18 19 19 18 18 20 20 20 17 17 18 19 18 18 17 17 16 14 13 13 13 12 10 9 8 6 6 7
1 1 0 0 2 2 1 1 1 2 1 3 5 5 4 4 4 3 5 5 5 4 3 3 3 3 3 1 3 3 3 2 3 1 2 6 5 4 4 8 9 7 2 1 5 9 10 12 12 15 13 14 14 12 16 16 14 16 15 15 16 16 17 19 19 19 18 17 19 19 20 18 15 14 15 15 12 11 11 10 10 9 9 8 7 7 8
1 1 1 3 1 5 2 2 5 3 1 2 3 4 4 2 2 3 6 5 6 3 1 2 1 2 2 2 1 2 2 1 0 4 4 5 2 3 7 11 4 1 6 7 8 10 10 10 10 11 15 15 14 14 14 16 17 18 17 16 17 16 17 18 18 18 19 17 17 20 18 16 15 15 13 12 10 8 8 8 10 9 8 8 9 8 8
1 1 2 2 5 5 3 4 5 5 4 3 3 3 3 2 3 3 5 5 3 2 1 1 1 1 2 4 3 1 2 0 3 1 4 2 3 1 4 1 4 5 8 11 12 9 8 8 9 12 13 14 16 17 17 17 18 17 16 17 17 17 17 16 16 16 17 16 16 16 17 16 16 13 11 10 9 8 8 8 9 9 9 7 8 10 11
Wind_Direction
2 358 353 340 330 333 335 334 330 298 255 215 188 163 244 221 262 58 161 166 152 161 198 193 197 214 230 261 288 230 246 262 261 213 183 223 200 247 220 211 219 223 240 198 228 189 236 170 214 154 232 243 214 183 184 129 166 75 131 46 32 66 156 211 253 280 238 123 45 62 257 169 171 255 247 184 207 200 208 227 244 227 192 232 224 222 265
353 354 353 352 346 333 328 325 327 328 276 217 147 198 229 211 151 175 199 182 166 173 186 198 214 223 253 232 246 227 241 236 242 227 193 197 178 218 222 242 220 253 201 216 240 172 255 200 219 233 223 264 212 178 165 153 184 184 194 185 167 176 233 212 233 247 271 257 138 182 228 223 219 207 206 206 210 210 243 26 111 252 233 237 205 247 249
344 346 347 348 349 343 333 323 320 319 317 273 198 231 206 116 68 62 184 210 196 197 197 206 195 213 217 219 232 235 240 232 235 219 212 228 237 230 237 229 125 219 215 240 242 221 225 265 214 234 218 243 37 226 169 185 199 218 191 186 163 197 172 186 207 225 229 235 242 230 173 209 224 318 209 192 208 206 184 237 222 241 243 237 242 258 250
334 336 336 339 344 343 338 333 323 314 316 317 264 204 228 173 236 147 177 215 237 265 332 325 197 208 226 246 242 243 249 263 263 212 246 222 243 234 349 7 221 242 234 242 240 246 230 234 241 200 251 266 75 296 211 197 209 216 198 196 150 200 185 195 212 223 225 232 247 39 105 126 197 214 190 203 209 212 213 221 227 229 233 222 231 245 266
318 323 329 333 335 337 338 335 329 320 309 317 300 263 241 134 219 139 192 210 235 248 262 246 219 224 187 230 154 231 232 244 309 171 243 208 224 237 227 240 245 236 243 246 254 249 255 237 262 254 252 40 328 223 214 272 257 28 326 251 204 173 214 211 223 229 235 242 253 257 204 176 204 206 204 205 203 212 215 218 236 215 50 251 238 248 254
301 307 315 324 327 328 331 334 330 322 315 314 305 270 199 242 216 185 177 173 184 206 236 226 236 237 205 240 202 237 228 220 236 205 228 241 188 182 228 229 225 234 232 236 248 253 263 267 253 251 263 282 263 301 154 206 279 222 240 144 186 214 241 232 237 241 240 241 251 252 254 244 232 220 208 214 210 215 218 228 237 223 230 241 243 249 254
307 303 303 308 317 320 322 325 328 325 317 316 278 275 234 245 281 257 154 228 189 196 202 202 213 212 212 222 207 230 225 233 220 217 152 209 207 193 231 209 216 222 225 222 233 217 254 253 250 254 268 261 272 261 285 252 2 6 258 0 185 195 244 249 250 264 261 259 256 259 262 264 263 259 260 251 235 226 219 235 233 224 238 244 254 257 260
305 306 304 303 308 313 318 320 325 326 321 308 276 253 267 241 266 252 222 235 206 206 213 211 206 219 205 221 208 221 222 231 230 227 212 224 217 201 226 228 225 218 218 217 222 213 220 229 240 229 240 256 222 254 226 208 359 40 266 246 285 231 253 252 263 266 254 253 256 259 260 262 265 265 258 247 245 244 234 243 245 244 252 253 253 258 265
298 299 301 302 299 304 313 319 322 327 331 289 258 264 242 298 282 313 274 229 250 227 206 201 194 214 201 226 219 227 227 231 224 233 204 220 221 189 220 221 232 225 218 215 224 222 226 227 235 238 232 241 225 243 3 312 312 323 279 269 271 209 261 244 252 254 252 247 248 249 254 257 260 262 251 248 246 244 240 240 237 241 250 251 256 257 246
298 295 295 294 298 297 301 316 324 330 339 306 286 266 297 287 283 266 262 256 166 221 205 230 202 221 197 203 213 210 226 226 225 250 228 231 228 228 223 226 231 231 223 223 224 227 225 227 231 234 238 239 240 232 235 220 222 220 241 223 234 187 234 236 234 241 244 246 244 253 259 272 263 240 239 240 248 253 253 254 256 247 246 258 250 243 251
298 300 302 300 292 293 298 304 317 324 350 321 316 302 300 295 308 321 295 283 186 213 207 220 210 216 199 214 225 216 233 223 225 228 231 204 230 230 237 228 222 230 223 224 223 229 232 237 241 243 248 248 251 240 236 233 224 222 232 231 221 215 222 241 216 244 246 251 252 251 251 235 229 229 233 237 244 242 244 246 246 248 239 248 258 267 261
292 295 298 302 302 292 289 295 299 310 322 296 311 303 309 326 318 283 285 260 265 265 242 238 214 220 219 212 213 215 218 220 230 217 238 237 232 212 224 232 226 244 233 250 73 82 58 58 304 285 257 246 245 241 236 237 234 230 223 225 221 222 220 233 217 239 241 245 247 235 228 230 235 243 229 235 237 245 251 253 258 264 258 259 259 256 257
285 286 287 289 295 298 294 291 289 292 302 305 307 303 320 335 311 299 286 282 278 263 272 255 261 250 244 239 229 225 224 228 230 233 238 239 245 236 218 222 223 239 239 167 138 219 236 233 234 234 240 243 245 245 241 237 239 232 228 223 223 227 225 224 224 227 247 225 203 237 241 244 283 184 226 240 251 254 257 260 251 248 251 255 254 254 260
283 283 284 285 284 284 287 295 300 294 286 290 302 288 302 332 314 297 277 288 276 239 272 287 266 265 260 253 249 248 236 237 237 234 242 231 241 236 233 231 233 238 228 121 208 205 256 171 250 217 227 224 243 239 230 231 229 226 227 221 220 223 228 219 244 205 232 219 217 230 274 345 176 210 227 218 219 227 226 240 236 239 247 250 251 254 257
277 281 281 282 282 283 282 281 285 296 298 290 257 286 284 286 308 310 311 275 278 277 247 260 359 348 335 311 283 266 247 246 241 240 237 243 244 234 238 239 234 232 138 204 194 178 220 215 227 208 210 203 226 235 186 232 217 222 223 220 219 214 219 209 226 219 210 233 232 238 221 236 216 217 234 239 238 242 251 239 252 195 247 244 246 251 252
278 276 276 277 281 282 282 281 277 278 284 296 288 269 250 242 263 260 252 266 304 281 242 157 9 315 304 302 306 302 298 284 257 257 249 238 242 248 245 242 235 211 189 221 204 215 201 221 228 220 223 217 217 244 211 164 228 206 216 223 221 218 220 222 223 232 212 231 231 229 228 236 182 228 234 244 247 229 80 250 247 197 241 246 249 251 252
277 277 277 274 271 273 276 279 280 276 272 276 280 285 276 211 199 255 280 254 226 250 323 325 286 202 268 292 292 289 331 317 326 293 276 257 270 266 262 244 222 199 214 218 208 219 219 228 225 231 240 209 221 226 211 208 191 207 207 212 217 216 210 212 229 234 230 241 236 241 217 244 193 215 231 242 246 156 156 252 236 226 242 240 246 250 250
276 275 270 272 272 269 271 272 274 273 270 264 255 256 270 267 219 202 234 258 282 287 262 262 267 257 257 296 320 300 281 299 297 314 281 283 293 27 343 325 259 231 209 223 188 218 221 217 214 214 233 208 219 148 232 185 216 175 174 195 191 215 216 216 225 220 225 224 241 246 244 201 176 213 226 208 129 155 210 230 221 228 237 236 238 245 247
271 267 267 266 265 266 267 268 269 271 266 262 264 270 252 242 239 214 236 245 234 252 341 30 346 273 260 274 230 252 261 282 296 302 304 312 112 9 300 250 245 284 216 228 209 223 221 227 218 221 234 206 199 230 203 225 230 196 195 174 208 217 199 222 214 221 219 226 231 236 244 217 201 222 218 146 148 203 224 227 230 244 243 239 231 238 243
271 271 267 266 268 266 264 264 264 266 270 265 251 230 246 205 171 238 235 264 265 266 263 271 284 281 297 301 286 283 297 282 241 285 311 295 348 356 352 322 40 3 330 243 236 209 230 228 219 211 225 213 227 213 229 229 212 219 212 193 207 164 205 195 201 218 234 232 240 232 236 123 190 222 216 180 206 229 226 243 237 238 242 243 244 238 242
273 270 271 268 264 263 263 261 263 263 264 268 260 243 280 230 215 213 219 243 265 273 283 250 241 265 259 251 263 272 273 272 300 291 252 266 319 354 257 248 21 17 318 288 303 286 266 260 220 226 209 216 217 204 232 227 227 222 215 222 219 178 224 200 213 179 219 217 211 217 220 219 197 197 214 197 217 222 229 235 245 233 236 236 243 241 242
269 268 261 257 259 261 265 265 262 262 259 259 259 221 241 231 207 216 185 200 228 243 255 286 119 262 262 256 250 243 245 252 249 236 245 269 203 209 246 307 291 254 273 338 292 305 299 343 346 328 300 300 307 245 243 233 234 169 213 221 240 176 220 213 221 195 205 220 218 221 221 223 206 205 222 221 222 225 234 239 242 245 239 237 245 248 244
271 266 265 263 261 260 259 260 260 259 257 258 261 202 237 222 173 205 144 211 226 254 269 269 265 261 265 262 249 240 244 239 251 247 229 239 265 209 224 230 250 194 226 204 263 275 283 289 270 274 273 246 257 290 289 262 281 236 239 213 247 226 225 232 238 244 231 237 226 235 228 229 228 212 221 228 231 228 232 240 248 245 250 244 244 244 246
268 268 265 261 259 257 257 258 259 258 256 255 248 196 230 223 218 175 136 226 257 275 270 243 245 251 223 257 260 229 233 243 239 241 233 225 245 264 238 218 254 248 206 226 218 259 293 294 295 299 284 292 303 281 285 285 259 265 271 290 270 306 308 288 268 277 259 254 192 235 235 231 224 221 225 229 234 240 233 235 238 246 247 251 250 251 248
271 267 266 264 260 255 255 255 255 258 259 257 256 253 245 234 201 185 204 241 216 201 251 288 218 229 228 183 227 232 233 235 237 233 222 218 227 242 256 246 237 284 284 294 314 290 284 287 294 268 273 297 286 283 285 286 277 301 278 264 301 293 282 268 266 268 259 273 275 276 269 257 253 243 239 238 234 237 233 233 232 236 241 244 251 254 257
268 268 263 260 254 252 253 253 253 253 256 252 248 182 209 228 206 172 182 234 257 240 249 252 266 281 150 219 241 238 231 173 216 223 221 219 219 227 246 263 263 248 261 268 269 264 254 246 243 272 283 276 181 269 271 261 291 286 269 273 261 287 13 263 32 294 287 294 297 295 295 291 280 269 238 227 245 242 239 239 241 243 246 247 249 246 252
264 260 263 264 259 253 251 250 251 251 252 255 247 195 220 229 152 160 176 184 219 262 214 245 264 278 217 232 242 215 192 220 226 223 224 221 230 243 250 256 264 263 253 273 253 263 255 256 243 258 239 261 277 268 275 277 274 287 276 282 309 290 260 268 277 273 268 260 266 261 276 270 278 277 280 289 305 306 300 293 280 267 268 266 261 259 255
263 261 263 259 256 252 251 252 249 248 251 255 260 244 215 213 208 203 203 196 202 235 254 251 242 237 224 256 263 238 234 210 213 239 250 251 240 241 242 249 257 267 260 244 269 247 247 260 259 260 265 281 272 264 248 255 251 253 246 247 238 250 255 252 247 249 259 269 268 263 267 281 293 309 312 325 332 322 310 298 293 285 275 274 276 280 281
267 260 257 257 257 253 247 251 250 249 250 254 216 239 212 223 213 206 206 208 206 237 252 266 298 293 263 248 57 321 231 203 225 234 242 247 248 231 230 234 240 252 260 258 248 252 257 260 265 265 254 268 274 283 310 270 257 256 251 226 222 233 239 247 257 267 270 277 289 309 283 272 283 278 280 283 281 288 287 287 288 285 280 290 299 285 284
265 254 252 255 250 247 248 244 244 246 246 232 104 183 255 261 202 212 202 193 194 189 200 224 244 241 159 13 266 256 264 201 208 224 230 236 240 238 237 235 245 243 244 253 255 262 250 260 255 255 259 255 257 278 268 271 267 262 276 269 261 260 257 256 256 262 273 280 283 285 287 285 276 273 276 282 281 274 275 279 277 276 279 279 276 276 270
261 253 247 251 254 252 250 248 247 247 245 140 150 167 199 254 225 201 198 198 183 184 218 229 246 277 294 240 228 248 252 248 224 226 239 243 249 248 245 229 241 243 255 247 245 252 256 250 254 258 259 254 263 262 260 266 267 266 269 279 279 278 279 279 286 288 296 306 307 300 293 290 293 292 283 281 279 278 279 277 279 279 280 281 278 276 277
260 251 250 250 251 248 244 246 246 246 218 188 198 197 184 174 143 144 176 181 160 164 165 270 284 246 228 262 228 235 241 241 217 205 210 172 231 222 240 210 230 219 220 242 246 258 240 254 253 259 258 252 251 258 255 258 262 268 277 272 273 273 274 280 280 282 289 295 301 297 291 288 287 284 288 292 291 292 288 286 285 284 281 277 276 274 272
249 243 242 247 248 249 248 246 242 233 203 228 248 259 259 238 136 119 166 136 158 203 185 193 213 246 233 243 323 287 191 107 211 212 253 194 234 204 237 212 220 239 222 245 237 256 224 249 255 256 249 249 251 254 256 251 260 273 274 275 279 280 279 276 277 276 279 292 307 301 301 305 308 312 309 309 303 302 300 297 296 294 291 288 283 281 275
240 238 242 245 247 248 248 249 245 241 188 184 214 219 218 239 238 177 178 129 129 217 154 189 210 224 247 18 353 261 142 210 234 171 259 223 190 201 230 228 189 227 194 232 237 255 258 260 259 262 266 255 251 258 255 259 261 264 267 268 268 282 298 302 310 338 358 345 328 313 302 300 303 306 305 301 297 294 294 294 295 293 289 286 283 282 282
235 238 248 249 245 257 324 293 249 140 191 216 248 260 181 208 214 190 175 184 156 216 175 232 149 210 291 313 235 261 147 189 237 190 204 252 164 198 226 239 201 236 238 232 248 250 264 253 263 263 254 254 251 249 260 273 268 263 265 290 2 0 357 346 341 346 330 326 318 308 307 311 313 311 311 311 306 303 299 294 289 286 286 284 285 284 282
225 223 230 226 142 135 132 165 156 154 198 213 211 205 200 207 211 201 189 189 191 214 200 211 183 206 202 245 243 268 134 230 239 221 209 213 311 225 223 239 258 233 247 244 257 248 254 256 258 265 270 262 250 262 265 276 314 358 41 30 2 10 342 316 317 321 313 308 303 299 305 328 331 313 306 300 299 300 303 301 295 285 281 283 284 286 287
213 193 171 130 120 112 186 191 201 189 213 169 201 189 214 196 23 51 81 171 298 206 202 160 200 216 192 231 231 264 168 247 167 165 256 179 212 223 133 211 244 264 244 236 235 245 246 241 245 261 255 255 260 268 10 47 48 20 8 4 353 331 331 329 322 318 312 309 314 326 354 334 318 314 310 303 300 302 303 297 296 299 297 291 288 286 282
178 146 123 91 95 157 213 245 202 221 179 181 148 74 342 26 189 226 283 227 220 160 220 186 242 247 216 218 241 201 114 262 110 216 284 222 216 264 188 219 238 249 250 245 241 233 250 241 239 239 252 246 251 57 46 42 51 49 353 349 341 335 329 332 335 338 342 337 331 336 343 333 322 312 312 308 308 305 297 288 288 287 284 281 279 279 279
130 106 53 107 123 187 190 239 239 154 105 52 79 97 222 87 102 232 225 195 183 208 196 184 221 215 214 223 248 198 208 260 337 168 226 238 153 281 199 242 252 231 267 269 261 206 249 234 246 244 252 252 249 48 1 45 357 7 335 339 336 333 330 327 336 327 302 283 281 294 301 303 305 303 306 304 300 296 291 289 288 285 283 283 280 279 277
52 112 146 155 190 209 103 46 107 113 121 131 355 115 217 184 164 239 71 70 292 268 158 223 207 217 200 216 221 255 148 160 219 232 224 268 153 214 275 38 286 140 259 249 264 207 243 263 250 249 250 247 83 17 12 355 342 328 343 309 325 328 333 324 319 311 290 284 284 284 285 280 278 281 290 295 297 295 295 291 284 282 283 282 281 282 281
137 86 111 185 214 155 151 162 35 46 92 149 97 314 96 264 225 197 121 219 206 245 201 193 134 197 209 214 209 239 246 99 333 74 158 232 240 99 234 242 258 28 251 255 259 132 216 239 249 252 259 67 29 356 342 338 330 334 335 334 325 317 322 318 315 314 303 294 291 291 285 280 276 274 274 275 280 283 283 283 287 285 283 283 283 281 278
182 156 170 127 100 97 82 14 102 96 298 164 161 208 186 231 32 357 162 185 232 223 270 162 209 185 205 183 205 196 261 168 130 128 145 257 233 165 232 237 311 215 245 238 78 259 143 263 261 261 105 35 355 337 337 333 333 331 323 334 329 325 321 318 315 317 312 304 298 293 292 291 289 285 279 275 273 275 278 282 283 283 281 278 277 274 275
112 106 109 78 99 154 137 160 193 147 191 179 143 233 146 170 220 179 238 256 307 85 260 31 260 71 333 52 322 212 205 244 180 240 137 237 280 102 205 243 219 240 240 43 97 264 258 260 258 263 76 359 358 327 340 320 326 311 323 323 330 324 328 325 327 319 316 303 296 289 292 292 285 275 274 277 276 273 270 264 264 271 277 281 284 282 282
125 114 131 164 147 218 131 194 149 92 217 176 161 197 192 218 284 67 319 259 206 240 263 196 241 188 262 57 137 292 19 309 200 117 261 260 92 252 249 243 229 253 61 287 259 261 259 259 281 41 0 333 320 340 335 334 329 328 322 329 326 328 326 323 321 317 314 307 292 294 293 288 284 281 273 261 257 263 270 274 283 295 298 295 286 282 293
137 162 98 72 238 236 105 230 86 148 189 212 192 211 163 204 211 186 208 272 94 203 338 77 125 129 206 263 35 313 178 237 46 108 249 205 231 229 214 256 247 20 237 261 258 268 269 255 64 317 356 337 338 338 335 330 331 329 323 320 322 328 330 327 325 324 314 317 314 312 302 299 299 298 298 298 297 302 309 309 311 309 304 300 293 298 326
171 179 158 176 198 208 156 207 131 223 266 193 210 194 205 230 142 191 16 12 40 29 55 7 10 75 210 235 162 238 169 189 343 218 190 182 239 248 225 268 70 279 256 238 255 256 258 297 2 329 336 325 326 326 330 327 326 319 322 319 325 326 325 322 318 315 316 313 315 314 309 309 308 311 311 311 316 316 314 313 312 308 304 302 308 326 344
107 92 109 115 103 258 110 171 217 208 187 200 226 179 184 157 109 97 49 1 32 293 300 265 233 202 185 249 101 310 327 66 205 251 107 222 226 276 331 249 258 230 250 252 249 255 274 89 323 337 323 327 321 322 321 319 314 317 314 314 315 320 321 320 319 318 316 316 311 313 313 311 309 308 307 309 313 314 310 311 309 311 311 314 335 358 14
177 217 106 175 221 164 176 235 146 90 35 72 1 8 23 122 105 58 347 338 281 333 335 27 356 358 275 266 143 239 238 186 225 247 179 231 287 22 252 222 231 242 227 242 253 63 356 331 332 320 323 317 319 318 318 319 319 319 321 318 319 320 322 321 321 321 321 321 319 315 313 313 309 306 304 307 310 310 313 313 313 314 318 330 354 17 32
135 138 159 217 214 176 241 322 111 231 323 2 26 46 27 48 68 0 325 341 354 345 325 46 302 93 269 159 188 197 223 168 207 235 150 184 200 227 207 239 231 251 242 46 336 347 319 327 316 316 310 314 315 314 311 311 313 316 319 319 319 318 316 315 317 316 318 317 317 315 310 308 308 303 303 306 308 310 317 319 317 321 332 348 23 49 58
161 324 26 103 324 285 169 14 65 278 317 354 38 34 28 65 68 28 10 352 347 315 284 215 210 209 246 161 240 197 230 184 199 244 193 225 220 237 220 249 232 245 238 50 304 310 310 314 317 309 311 310 309 309 311 311 310 310 309 309 311 313 313 315 314 315 317 320 318 315 312 309 308 308 306 304 306 310 316 324 335 334 344 5 27 58 67
239 169 44 19 218 265 116 236 236 200 89 58 39 21 18 46 42 353 2 339 321 336 39 210 242 187 256 225 220 233 242 82 70 224 202 232 170 208 223 243 245 97 270 286 285 295 303 301 305 303 307 309 310 307 305 306 307 307 308 309 311 310 309 312 313 314 317 318 319 320 320 317 309 307 307 306 310 317 324 342 350 348 0 14 28 44 60
140 214 104 54 41 12 12 79 62 65 60 78 55 13 32 49 1 331 331 329 299 168 282 37 317 242 192 224 242 326 341 49 237 146 236 255 53 258 261 255 351 298 311 308 303 300 290 293 290 294 299 300 305 306 304 302 301 302 306 310 308 310 314 315 316 320 320 318 318 321 320 318 321 321 323 334 345 354 2 359 356 358 15 33 36 59 73